Location: Fort Wayne
(41.1310°N, 85.1290°W)
Time: 21:53:12
(UTC-04:00)

Cosmos 2219 Rocket - Visible Passes

Search period start: 18 October 2017 00:00
Search period end: 28 October 2017 00:00
Orbit: 830 x 845 km, 71.0° (Epoch: 18 October)

Date Brightness Start Highest point End Pass type
(mag) Time Alt. Az. Time Alt. Az. Time Alt. Az.
18 Oct 3.3 19:51:36 10° N 19:56:00 23° NE 19:58:26 18° E visible
18 Oct 2.7 21:34:50 10° NNW 21:40:12 55° WSW 21:40:12 55° WSW visible
19 Oct 3.4 19:35:20 10° N 19:39:35 22° NE 19:43:15 12° E visible
19 Oct 2.6 21:18:27 10° NNW 21:23:57 59° WSW 21:25:02 50° SSW visible
20 Oct 3.5 19:19:05 10° N 19:23:10 20° NE 19:27:15 10° E visible
20 Oct 2.5 21:02:03 10° NNW 21:07:36 65° WSW 21:10:07 33° S visible
21 Oct 2.4 20:45:41 10° NNW 20:51:16 70° WSW 20:55:32 18° S visible
22 Oct 2.3 20:29:19 10° NNW 20:34:55 76° WSW 20:40:31 10° SSE visible
23 Oct 2.2 20:12:57 10° NNW 20:18:34 82° WSW 20:24:11 10° SSE visible
24 Oct 2.2 19:56:35 10° NNW 20:02:13 88° WSW 20:07:51 10° SSE visible
24 Oct 5.2 21:43:57 10° W 21:45:15 11° W 21:46:33 10° WSW visible
25 Oct 2.1 19:40:14 10° NNW 19:45:52 86° ENE 19:51:29 10° SSE visible
25 Oct 5.1 21:26:57 10° WNW 21:28:58 12° W 21:30:59 10° WSW visible
26 Oct 2.1 19:23:53 10° NNW 19:29:30 80° ENE 19:35:08 10° SSE visible
26 Oct 5.1 21:10:09 10° WNW 21:12:40 13° W 21:15:11 10° SW visible
27 Oct 2.2 19:07:31 10° NNW 19:13:09 75° ENE 19:18:46 10° SSE visible
27 Oct 5.1 20:53:28 10° WNW 20:56:22 14° W 20:59:17 10° SW visible
